Regional Weather Roundup
Issued by NWS

Home | Current Version | Previous Version | Text Only | Print | Product List | Glossary On
Versions: 1 2 3 4 5 6 7 8 9 10 11 12 13 14 15 16 17 18 19 20 21 22 23 24 25 26 27 28 29 30 31 32 33 34 35 36 37 38 39 40 41 42 43 44 45 46 47 48 49 50
000
ASUS46 KSEW 270910
RWRWA

WASHINGTON REGIONAL WEATHER ROUNDUP
NATIONAL WEATHER SERVICE SEATTLE WA
200 AM PDT MON APR 27 2015

NOTE:"FAIR" INDICATES FEW OR NO CLOUDS BELOW 12,000 FEET WITH NO
SIGNIFICANT WEATHER AND/OR OBSTRUCTIONS TO VISIBILITY.

WAZ505-507>509-271000-
SEATTLE, TACOMA, EVERETT, AND VICINITY

CITY           SKY/WX    TMP DP  RH WIND       PRES   REMARKS
EVERETT        CLOUDY    51  47  86 SE10      30.26S
BOEING FIELD   CLOUDY    55  48  77 SE6       30.27S
RENTON         CLOUDY    53  47  79 SE3       30.27S
SEATAC AIRPORT CLOUDY    52  49  89 SW3       30.27S
JBLM-MCCHORD   DRIZZLE   52  52 100 CALM      30.27R FOG
PUYALLUP       CLOUDY    52  52 100 CALM      30.27R
BREMERTON      CLOUDY    48  48 100 S8        30.29R
JBLM-FT LEWIS  LGT RAIN  52  52 100 CALM      30.26S FOG
TACOMA NARROWS LGT RAIN  51  48  89 CALM      30.27S FOG
$$

WAZ001-503-506-510-514-515-271000-
NORTH INTERIOR

CITY           SKY/WX    TMP DP  RH WIND       PRES   REMARKS
BELLINGHAM     LGT RAIN  51  46  83 CALM      30.24S
FRIDAY HARBOR  CLOUDY    52  46  80 SE7       30.25R
EASTSOUND      CLOUDY    54  46  76 S8        30.22S
PORT ANGELES   CLOUDY    48  43  82 W3        30.22S
NAS WHIDBEY    CLOUDY    57  46  66 SE12      30.24S
ARLINGTON      CLOUDY    54  43  66 E3        30.28R
BURLINGTON     CLOUDY    54  46  76 E6        30.25S
$$

WAZ020-022-039-040-504-511-512-271000-
SOUTHWEST INTERIOR

CITY           SKY/WX    TMP DP  RH WIND       PRES   REMARKS
SHELTON        CLOUDY    49  48  97 CALM      30.24S FOG
OLYMPIA        CLOUDY    50  49  96 CALM      30.26S FOG
CHEHALIS       CLOUDY    52  52 100 VRB6      30.27S FOG
KELSO          CLOUDY    54  48  82 S5        30.32S
VANCOUVER      CLOUDY    53  50  89 SE3       30.29R
SCAPPOOSE, OR  CLOUDY    53  51  93 CALM      30.29R FOG
PORTLAND, OR   CLOUDY    53  52  96 E5        30.29S
$$

WAZ021-516-517-271000-
WASHINGTON COAST

CITY           SKY/WX    TMP DP  RH WIND       PRES   REMARKS
FORKS          CLOUDY    52  51  97 SE8       30.20R FOG
HOQUIAM        LGT RAIN  51  50  96 NE9       30.24S FOG
ASTORIA, OR    CLOUDY    52  51  97 E3        30.25F FOG
$$

WAZ019-023-024-040-518-519-271000-
CASCADE MOUNTAINS AND COLUMBIA GORGE

CITY           SKY/WX    TMP DP  RH WIND       PRES   REMARKS
TROUTDALE, OR  CLOUDY    55  49  80 CALM      30.28S
THE DALLES, OR CLOUDY    54  44  69 CALM      30.26S
$$

WAZ026-027-041>044-520-521-271000-
EAST SLOPES

CITY           SKY/WX    TMP DP  RH WIND       PRES   REMARKS
OMAK           CLOUDY    52  27  38 S5        30.24R
WENATCHEE      MOCLDY    52  29  41 E5        30.24R
ELLENSBURG     MOCLDY    47  33  58 E3        30.24R
YAKIMA         CLOUDY    49  33  54 W6        30.25R
$$

WAZ028-034-035-271000-
COLUMBIA BASIN

CITY           SKY/WX    TMP DP  RH WIND       PRES   REMARKS
EPHRATA        MOCLDY    47  31  53 N6        30.25R
MOSES LAKE     MOCLDY    47  30  51 CALM      30.26S
PASCO          MOCLDY    45  33  63 E5        30.27R
HERMISTON, OR  PTCLDY    44  32  62 SE5       30.25S
$$

WAZ036>038-271000-
NORTHEAST WASHINGTON

CITY           SKY/WX    TMP DP  RH WIND       PRES   REMARKS
SPOKANE GEIGER PTCLDY    41  25  53 SE6       30.26S
SPOKANE FELTS  PTCLDY    39  32  76 NE3       30.29R
FAIRCHILD AFB  PTCLDY    40  26  57 S2        30.26S
COEURDALENE,ID CLEAR     36  32  87 E5        30.30S
DEER PARK      PTCLDY    30  28  92 N3        30.28R
$$

WAZ029>033-271000-
SOUTHEAST WASHINGTON

CITY           SKY/WX    TMP DP  RH WIND       PRES   REMARKS
PULLMAN        PTCLDY    37  25  61 CALM      30.30R
LEWISTON, ID   PTCLDY    41  27  57 SE5       30.30R
WALLA WALLA    CLEAR     48  29  47 E8        30.27R
PENDLETON, OR  CLEAR     41  29  62 SE6       30.27R
$$


USA.gov is the U.S. government's official web portal to all federal, state and local government web resources and services.